Meteo Giornale » Osservazioni meteo Austria » Vienna-Schwechat

ore: 06:50 - Osservazioni Meteo Vienna-Schwechat
Lat. 48° 7' N Lon. 16° 34' E Alt. 183 metri s.l.m.

sereno Europe/Vienna

21 °C

Sereno

Temp. 24 Ore

19 °C

29 °C

Nord

3.7 Km/h

Dew point 18 °C

Umidità 82 %

Visibilità  10 Km

Il sole sorge alle ore 05:23

Il sole tramonta alle ore 20:37

Data e Ora Cielo e Fenomeni T °C DP °C Um. % Pres. hPa Vis. km Vento km/h
Oggi h: 06:50 sereno Sereno 21 18 82 1013 10 N 3.7
Oggi h: 06:20 sereno Sereno 20 18 88 1012 10 N 3.7
Oggi h: 05:50 sereno Sereno 19 17 88 1012 10 N 3.7
Oggi h: 05:20 sereno Sereno 19 16 82 1012 10 N 3.7
Oggi h: 04:50 sereno Sereno 19 17 88 1012 10 N 5.5
Oggi h: 04:20 sereno Sereno 19 16 82 1012 10 S/SO 7.4
Oggi h: 03:50 sereno Sereno 19 16 82 1012 10 NO 7.4
Oggi h: 03:20 sereno Sereno 21 16 73 1012 10 N 5.5
Oggi h: 02:50 sereno Sereno 20 16 77 1012 10 N 5.5
Oggi h: 02:20 sereno Sereno 20 16 77 1012 10 N 3.7
Oggi h: 01:50 sereno Sereno 19 16 82 1012 10 S 11.1
Oggi h: 01:20 sereno Sereno 20 17 82 1012 10 N 7.4
Oggi h: 00:50 sereno Sereno 23 16 64 1012 10 N 5.5
Oggi h: 00:20 sereno Sereno 23 17 68 1013 10 N 5.5
Ieri h: 23:50 sereno Sereno 23 17 68 1013 10 N 1.8
Ieri h: 23:20 sereno Sereno 23 17 68 1013 10 S/SE 7.4
Ieri h: 22:50 sereno Sereno 23 17 68 1013 10 SE 7.4
Ieri h: 22:20 sereno Sereno 23 17 68 1013 10 N 5.5
Ieri h: 21:50 sereno Sereno 24 17 64 1013 10 N 3.7
Ieri h: 21:20 sereno Sereno 25 17 61 1013 10 N 3.7
Ieri h: 20:50 sereno Sereno 26 17 57 1013 10 E/SE 9.3
Ieri h: 20:20 sereno Sereno 26 17 57 1013 10 E/SE 7.4
Ieri h: 19:50 sereno Sereno 27 17 54 1013 10 SE 9.3
Ieri h: 19:20 sereno Sereno 28 16 48 1013 10 SE 13
Ieri h: 18:50 sereno Sereno 29 16 45 1013 10 E/SE 14.8
Ieri h: 18:20 sereno Sereno 29 16 45 1013 10 E/SE 13
Ieri h: 17:50 sereno Sereno 28 16 48 1013 10 E/SE 13
Ieri h: 17:20 sereno Sereno 28 16 48 1014 10 S/SE 14.8
Ieri h: 16:50 sereno Sereno 29 16 45 1014 10 SE 16.7
Ieri h: 16:20 sereno Sereno 29 16 45 1014 10 S/SE 16.7
Ieri h: 15:50 sereno Sereno 29 15 42 1015 10 S/SE 18.5
Ieri h: 15:20 sereno Sereno 29 16 45 1015 10 S/SE 11.1
Ieri h: 14:50 sereno Sereno 29 15 42 1015 10 S/SE 13
Ieri h: 14:20 sereno Sereno 29 15 42 1016 10 S/SE 11.1
Ieri h: 13:50 poco_nuvoloso Poco Nuvoloso 28 15 45 1016 10 E/SE 9.3
Ieri h: 13:20 poco_nuvoloso Poco Nuvoloso 28 16 48 1016 10 N 7.4
Ieri h: 12:50 poco_nuvoloso Poco Nuvoloso 27 15 47 1016 10 N 5.5
Ieri h: 12:20 poco_nuvoloso Poco Nuvoloso 27 16 50 1016 10 N 5.5
Ieri h: 11:50 poco_nuvoloso Poco Nuvoloso 26 16 54 1017 10 N 9.3
Ieri h: 11:20 poco_nuvoloso Poco Nuvoloso 26 15 50 1017 10 N 9.3
Ieri h: 10:50 poco_nuvoloso Poco Nuvoloso 26 16 54 1016 10 N/NO 11.1
Ieri h: 10:20 poco_nuvoloso Poco Nuvoloso 25 16 57 1017 10 NO 7.4
Ieri h: 09:50 poco_nuvoloso Poco Nuvoloso 25 15 53 1016 10 NO 14.8
Ieri h: 09:20 poco_nuvoloso Poco Nuvoloso 24 16 60 1016 10 NO 13
Ieri h: 08:50 sereno Sereno 24 16 60 1016 10 NO 11.1
Ieri h: 08:20 sereno Sereno 23 16 64 1016 10 NO 13
Ieri h: 07:50 sereno Sereno 22 15 64 1016 10 O/NO 14.8